Location: Heol-y-Cyw
(51.5461°N, 3.5206°W)
Time: 15:02:25
(UTC+00:00)

Daily predictions for brighter satellites

Satellite Brightness Start Highest point End
(mag) Time Altitude Azimuth Time Altitude Azimuth Time Altitude Azimuth
CZ-4B R/B 4.0 17:11:58 10° S 17:17:33 60° WSW 17:23:11 10° NNW
Cosmos 2237 Rocket 2.3 17:12:23 10° NNW 17:17:58 59° NE 17:23:31 10° SE
NOAA 12 4.3 17:13:31 10° SE 17:18:33 51° ENE 17:23:38 10° N
IRS-1C Rocket 4.1 17:13:35 10° SSE 17:18:48 70° ENE 17:24:03 10° NNW
ATLAS CENTAUR R/B 3.7 17:13:57 10° SW 17:18:58 82° SE 17:33:19 10° ENE
Starlink Q 2.9 17:17:45 10° WSW 17:20:48 71° SSE 17:23:52 10° ENE
Cosmos 1269 Rocket 4.1 17:17:06 10° NNW 17:22:20 58° ENE 17:27:33 10° SE
Starlink P 2.9 17:19:24 10° WSW 17:22:29 72° SSE 17:25:32 10° ENE
Starlink U 2.9 17:21:03 10° WSW 17:24:07 74° SSE 17:27:12 10° ENE
ATLAS CENTAUR R/B 2.6 17:21:06 10° NNW 17:24:34 23° NNE 17:27:50 10° E
Starlink B 2.9 17:22:45 10° WSW 17:25:49 75° SSE 17:28:54 10° ENE
Cosmos 2333 Rocket 3.2 17:20:37 10° NW 17:26:12 54° WSW 17:31:42 10° S
YAOGAN 1 3.7 17:24:58 10° ESE 17:28:19 22° ENE 17:31:41 10° N
ATLAS 5 CENTAUR R/B 2.4 17:25:30 10° WSW 17:29:44 47° NW 17:34:37 10° NE
Cosmos 1455 3.5 17:28:20 10° NNE 17:31:13 20° ENE 17:34:04 10° ESE
CZ-4 R/B 2.3 17:29:21 10° ESE 17:32:49 27° ENE 17:36:21 10° N
USA 267 3.4 17:28:11 10° ENE 17:34:44 75° SE 17:41:17 10° SW
Starlink D 2.8 17:32:20 10° WSW 17:35:26 83° SSE 17:38:23 11° ENE
Starlink S 2.8 17:34:06 10° WSW 17:37:12 85° SSE 17:40:05 12° ENE
Cosmos 2184 Rocket 4.0 17:32:25 10° S 17:38:35 90° SSE 17:44:48 10° N
Starlink C 2.8 17:35:48 10° WSW 17:38:55 86° SSE 17:41:44 12° ENE
Starlink E 2.8 17:37:35 10° WSW 17:40:41 87° SSE 17:43:26 13° ENE
SL-16 R/B 2.6 17:35:31 10° NNW 17:40:53 40° NE 17:46:12 10° ESE
Starlink J 2.8 17:39:21 10° WSW 17:42:28 89° SSE 17:45:09 13° ENE
Cosmos 494 Rocket 4.1 17:37:41 10° NNW 17:42:50 83° WSW 17:47:57 10° SSE
Cosmos 1271 Rocket 2.8 17:39:32 10° SSW 17:43:16 75° WNW 17:47:03 10° N
Starlink V 2.8 17:41:06 10° WSW 17:44:13 90° E 17:46:50 14° ENE
CORIOLIS 4.2 17:39:10 10° SSE 17:44:33 85° WSW 17:49:57 10° NNW
Cosmos 1602 Rocket 3.5 17:40:51 10° S 17:45:11 66° E 17:49:31 10° NNE
Starlink H 2.8 17:42:53 10° WSW 17:46:00 89° NNW 17:48:34 14° ENE
Meteor 1-24 Rocket 3.8 17:40:52 10° SSW 17:46:12 80° WNW 17:51:41 10° N
Cosmos 2154 Rocket 4.0 17:40:59 10° S 17:47:12 70° E 17:53:25 10° NNE
Starlink F 2.8 17:44:40 10° WSW 17:47:47 88° NNW 17:50:17 15° ENE
Starlink G 2.8 17:46:27 10° WSW 17:49:35 86° NNW 17:52:00 16° ENE
Cosmos 2219 3.5 17:45:17 10° S 17:50:37 47° ESE 17:56:01 10° NE
Starlink L 2.8 17:48:14 10° WSW 17:51:22 85° NNW 17:53:43 16° ENE
NOSS 2-1 (C) 4.3 17:47:52 10° NW 17:52:52 86° NE 17:59:54 10° SE
Starlink A 2.8 17:50:01 10° WSW 17:53:09 84° NNW 17:55:27 17° ENE
Starlink R 2.8 17:51:50 10° WSW 17:54:58 83° NNW 17:57:11 18° ENE
Ariane Rocket 4.2 17:51:27 10° ESE 17:55:14 22° NE 17:59:03 10° N
COSMO-SKYMED 1 3.2 17:51:24 10° NNE 17:55:24 35° E 17:59:23 10° SSE
Cosmos 1340 Rocket 3.0 17:51:35 10° NNW 17:55:33 73° W 17:59:31 10° S
NOSS 2-1 (D) 4.3 17:51:41 10° NW 17:56:43 90° ESE 18:03:48 10° SE
Starlink K 2.8 17:53:36 10° WSW 17:56:44 82° NNW 17:58:53 18° ENE
SL-14 R/B 3.5 17:53:55 10° SSW 17:57:54 73° WNW 18:01:52 10° N
Starlink M 2.8 17:55:21 10° W 17:58:29 81° NNW 18:00:35 19° ENE
Cosmos 1610 Rocket 4.5 17:53:17 10° S 17:59:26 89° E 18:05:39 10° N
Cosmos 1980 4.0 17:55:08 10° NNW 18:00:49 72° WSW 18:06:29 10° SSE
Cosmos 2297 Rocket 2.7 17:55:52 10° S 18:01:06 41° ESE 18:06:07 11° NE
Cosmos 1758 Rocket 3.8 17:58:29 10° SSE 18:02:36 45° E 18:06:44 10° NNE
H-2A R/B 4.3 18:00:31 10° SSW 18:04:09 40° W 18:07:52 10° NNW
Cosmos 2219 Rocket 4.4 18:01:33 10° NW 18:06:26 30° WSW 18:11:17 10° SSW
Cosmos 1626 Rocket 4.0 18:02:24 10° SSW 18:06:42 63° WNW 18:11:00 10° N
SMAP 4.4 18:04:57 10° S 18:09:23 43° W 18:13:52 10° NNW
FengYun 1-2 T 4.2 18:04:02 10° SSE 18:09:41 83° ENE 18:15:23 10° NNW
Cosmos 2366 rocket 4.4 18:05:39 10° SSE 18:11:20 39° E 18:17:06 10° NNE
USA 234 4.4 18:05:21 10° SSE 18:11:33 45° SW 18:17:47 10° WNW
Cosmos 2227 Rocket 2.5 18:08:23 10° S 18:13:44 46° ESE 18:18:20 14° NE
ISS -2.0 18:11:48 10° SSW 18:14:23 20° SE 18:15:27 18° ESE
NOAA 11 4.3 18:10:57 10° SE 18:16:18 56° ENE 18:21:41 10° N
Meteor 2-10 Rocket 3.5 18:12:03 10° N 18:17:24 63° ENE 18:22:30 10° SSE
Cosmos 962 Rocket 4.4 18:11:27 10° S 18:17:34 75° E 18:23:45 10° NNE
Starlink AS 2.7 18:18:35 10° W 18:21:31 68° N 18:22:29 37° ENE
H-2A R/B 3.2 18:21:12 21° ENE 18:21:33 21° NE 18:25:18 10° N
ARGOS 4.3 18:21:04 20° ENE 18:21:38 21° NE 18:25:33 10° N
Starlink BA 2.7 18:18:49 10° W 18:21:44 68° N 18:22:43 37° ENE
Starlink AU 2.7 18:19:03 10° W 18:21:58 68° N 18:22:55 37° ENE
Cosmos 2251 Rocket 3.6 18:16:51 10° NNW 18:22:05 56° ENE 18:27:17 10° SE
Starlink AT 2.7 18:19:17 10° W 18:22:12 68° N 18:23:09 37° ENE
Starlink BB 2.7 18:19:29 10° W 18:22:24 68° N 18:23:21 38° ENE
Starlink BC 2.7 18:19:44 10° W 18:22:39 68° N 18:23:36 38° ENE
Okean-O 3.3 18:18:27 10° S 18:22:49 59° WSW 18:27:14 10° NNW
Starlink BK 2.7 18:19:57 10° W 18:22:53 67° N 18:23:48 38° ENE
SJ 16-02 4.0 18:21:16 10° WNW 18:23:06 12° NW 18:24:56 10° NNW
Starlink AY 2.7 18:20:11 10° W 18:23:07 67° N 18:24:01 38° ENE
Starlink AW 2.7 18:20:25 10° W 18:23:21 67° N 18:24:15 39° ENE
Starlink AQ 2.8 18:20:27 10° W 18:23:24 68° N 18:24:20 38° ENE
Starlink BJ 2.7 18:20:38 10° W 18:23:34 67° N 18:24:27 39° ENE
Starlink AV 2.7 18:20:51 10° W 18:23:46 67° N 18:24:40 39° ENE
Starlink BD 2.7 18:21:05 10° W 18:24:00 67° N 18:24:53 39° ENE
Starlink BE 2.8 18:21:17 10° W 18:24:14 67° N 18:25:07 39° ENE
Starlink BM 2.7 18:21:32 10° W 18:24:27 67° N 18:25:19 40° ENE
Starlink AX 2.8 18:21:46 10° W 18:24:41 67° N 18:25:32 40° ENE
Starlink BH 2.7 18:21:59 10° W 18:24:55 67° N 18:25:45 40° ENE
Starlink AZ 2.7 18:22:12 10° W 18:25:08 67° N 18:25:58 40° ENE
Starlink BG 2.7 18:22:26 10° W 18:25:21 67° N 18:26:11 41° ENE
Starlink BF 2.8 18:22:39 10° W 18:25:35 67° N 18:26:24 41° ENE
Starlink BL 2.8 18:22:51 10° W 18:25:48 67° N 18:26:38 41° ENE
Starlink AH 2.8 18:23:07 10° W 18:26:02 67° N 18:26:50 42° ENE
Cosmos 1242 Rocket 4.4 18:23:01 10° SW 18:26:11 30° WNW 18:29:24 10° N
Starlink AC 2.8 18:23:21 10° W 18:26:15 66° N 18:27:03 42° ENE
Starlink X 2.8 18:23:33 10° W 18:26:28 66° N 18:27:15 42° ENE
Starlink AE 2.8 18:23:44 10° W 18:26:41 67° N 18:27:30 42° ENE
Cosmos 1825 Rocket 3.4 18:22:29 10° S 18:26:49 70° E 18:31:08 10° NNE
Starlink Z 2.8 18:24:01 10° W 18:26:56 66° N 18:27:42 43° ENE
Cosmos 1943 4.2 18:22:15 10° NNW 18:27:01 27° NE 18:28:39 23° ENE
Starlink AK 2.8 18:24:14 10° W 18:27:10 66° N 18:27:55 43° ENE
Starlink AL 2.8 18:24:28 10° W 18:27:23 66° N 18:28:08 43° ENE
Starlink AD 2.8 18:24:41 10° W 18:27:37 66° N 18:28:21 44° ENE
Starlink Y 2.8 18:25:08 10° W 18:28:03 66° N 18:28:47 44° ENE
Starlink AG 2.8 18:25:22 10° W 18:28:17 66° N 18:29:00 44° ENE
Starlink W 2.8 18:25:33 10° W 18:28:30 66° N 18:29:14 44° ENE
Starlink AJ 2.8 18:25:49 10° W 18:28:44 66° N 18:29:26 45° ENE
Starlink AM 2.8 18:26:12 10° W 18:29:08 66° N 18:29:48 46° NE
Starlink AP 2.8 18:26:29 10° W 18:29:24 66° N 18:30:04 46° NE
Starlink AA 2.8 18:26:38 10° W 18:29:33 66° N 18:30:13 46° NE
Cosmos 1607 4.4 18:23:44 10° WSW 18:29:46 56° NW 18:35:00 14° NE
Starlink AF 2.8 18:26:56 10° W 18:29:51 65° N 18:30:30 46° NE
Starlink AB 2.8 18:27:10 10° W 18:30:05 65° N 18:30:43 47° NE
Starlink AN 2.8 18:27:23 10° W 18:30:18 65° N 18:30:56 47° NE
USA 32 4.0 18:27:45 10° S 18:33:00 85° W 18:38:17 10° N
Starlink AR 2.5 18:31:19 10° W 18:33:52 60° N 18:33:59 59° NNE
Cosmos 1939 Rocket 2.8 18:30:06 10° SSE 18:33:57 60° ENE 18:37:56 10° N
Cosmos 1727 Rocket 4.0 18:28:44 10° N 18:34:51 56° ENE 18:40:53 10° SSE
Cosmos 1703 3.5 18:31:44 10° SSE 18:35:31 44° E 18:37:13 27° NE
Shenzhou-11 Module 4.5 18:36:46 10° S 18:37:11 10° SSE 18:37:13 10° SSE
USA 116 3.7 18:40:26 40° SE 18:40:26 40° SE 18:42:56 10° S
ADEOS Rocket 3.7 18:34:20 10° NNE 18:40:26 38° E 18:47:04 10° SSE
Cosmos 1125 Rocket 4.5 18:37:54 10° SW 18:42:54 45° WNW 18:47:56 10° NNE
ERBS 2.1 18:39:53 10° SW 18:43:13 76° SSE 18:43:43 59° E
SKYMED 2 3.6 18:39:13 10° NNE 18:43:36 84° WNW 18:47:56 10° SSW
CSL-04 Debris 4.2 18:40:40 10° SSE 18:46:03 86° WSW 18:51:31 10° NNW
SL-8 Rocket 3.9 18:40:14 10° S 18:46:33 82° E 18:52:51 10° NNE
YAOGAN 6 4.4 18:44:14 10° SSW 18:47:37 34° W 18:51:00 10° NNW
Cosmos 2221 3.4 18:44:57 10° N 18:47:43 30° NE 18:47:43 30° NE
Starlink T 3.0 18:50:01 10° W 18:52:57 62° NNW 18:52:57 62° NNW
Starlink N 3.1 18:51:36 10° W 18:54:28 61° NNW 18:54:28 61° NNW
Cosmos 2341 Rocket 4.4 18:49:12 10° SSW 18:55:33 69° WNW 19:01:54 10° N
Cosmos-2242 4.0 18:51:32 10° NNW 18:55:43 48° W 18:59:51 10° SSW
Starlink Q 3.1 18:53:27 10° W 18:56:15 59° NNW 18:56:15 59° NNW
Cosmos 2082 Rocket 4.5 18:57:12 10° N 18:57:39 10° N 18:58:05 10° N
CZ-2C R/B 3.9 18:58:04 32° NE 18:58:04 32° NE 19:02:38 10° N
Starlink P 3.2 18:55:08 10° W 18:57:52 57° NW 18:57:52 57° NW
Starlink U 3.3 18:56:48 10° W 18:59:28 55° NW 18:59:28 55° NW
Starlink B 3.4 18:58:29 10° W 19:01:06 53° NW 19:01:06 53° NW
Cosmos 2237 Rocket 4.2 18:56:56 10° NW 19:01:42 29° WSW 19:06:26 10° SSW
ATLAS CENTAUR R/B 1.1 18:59:54 10° NW 19:04:03 86° SW 19:04:45 59° SE
YAOGAN 1 3.3 18:59:54 10° S 19:04:08 53° W 19:08:23 10° NNW
CZ-2D R/B 3.6 19:00:42 10° S 19:04:30 64° W 19:08:21 10° NNW
Cosmos 1455 3.5 19:03:25 10° NNW 19:07:03 41° W 19:10:38 10° SSW
SL-8 R/B 4.3 19:03:11 10° SW 19:07:41 41° SSE 19:08:12 39° SE
CZ-4 R/B 3.0 19:03:56 10° SSW 19:07:44 37° W 19:11:37 10° NNW
Cosmos 407 Rocket 4.0 19:04:19 10° NNW 19:09:02 41° NE 19:09:02 41° NE
CSL-04 Rocket 4.3 19:05:11 10° S 19:10:36 59° WSW 19:16:07 10° NNW
Starlink D 4.0 19:08:12 10° W 19:10:28 42° WNW 19:10:28 42° WNW
ATLAS 5 CENTAUR R/B 3.3 19:08:40 10° NW 19:12:46 66° NE 19:18:33 29° ESE
Starlink S 4.1 19:09:58 10° W 19:12:10 40° WNW 19:12:10 40° WNW
Starlink C 4.2 19:11:41 10° W 19:13:50 39° WNW 19:13:50 39° WNW
ATLAS 5 CENTAUR R/B 3.5 19:11:45 10° WNW 19:15:34 23° N 19:17:00 21° NNE
Starlink E 4.3 19:13:28 10° W 19:15:33 37° WNW 19:15:33 37° WNW
USA 267 3.5 19:14:55 35° NE 19:17:44 63° NNW 19:24:09 10° W
SJ-11-01 4.1 19:17:16 57° SE 19:18:07 72° ENE 19:22:51 10° N
Starlink J 4.4 19:15:15 10° W 19:17:16 35° WNW 19:17:16 35° WNW
Cosmos 1821 Rocket 4.1 19:13:33 10° SSE 19:19:39 51° E 19:25:44 10° NNE
Starlink V 4.5 19:17:01 10° W 19:18:57 34° WNW 19:18:57 34° WNW
Meteor 1-27 4.1 19:17:42 10° NNW 19:23:18 87° W 19:28:52 10° S
Cosmos 2218 Rocket 4.3 19:17:36 10° SSW 19:23:56 68° WNW 19:30:21 10° N
SL-16 R/B 3.2 19:19:42 10° NW 19:25:07 46° WSW 19:30:29 10° S
SL-08 R/B 4.4 19:18:47 10° S 19:25:07 88° E 19:31:36 10° N
Cosmos 1356 Rocket 4.0 19:24:02 10° NNW 19:28:00 54° W 19:31:58 10° S
Meteor 1-11 4.1 19:22:49 10° S 19:28:26 89° ESE 19:32:52 17° NNE
Cosmos 44 3.0 19:24:39 10° SW 19:29:02 82° WSW 19:29:02 82° WSW
COSMO-SKYMED 1 4.3 19:27:40 10° N 19:31:32 31° WNW 19:35:22 10° SW
Meteor 2-2 Rocket 4.2 19:26:34 10° N 19:32:39 80° ENE 19:35:48 30° SSE
Ariane Rocket 3.1 19:28:39 10° S 19:33:42 74° WSW 19:38:49 10° NNW
Cosmos 2219 4.3 19:29:38 10° WSW 19:34:54 39° NW 19:38:27 19° N
Cosmos 2082 3.7 19:30:33 10° SW 19:36:10 77° WNW 19:37:54 46° NNE
Cosmos 1842 Rocket 4.0 19:32:28 10° NNW 19:36:54 62° W 19:39:07 28° SSW
Cosmos 1603 3.5 19:32:07 10° NNW 19:37:51 78° ENE 19:38:05 76° E
Cosmos 2123 Rocket 4.1 19:34:49 10° N 19:40:14 55° NE 19:40:14 55° NE
Cosmos 2297 Rocket 3.1 19:39:45 10° WSW 19:45:09 44° NW 19:47:57 26° N
ISS -1.0 19:47:25 10° WSW 19:48:25 18° WSW 19:48:25 18° WSW
Cosmos 1000 Rocket 4.5 19:45:03 10° NNW 19:51:16 79° W 19:57:30 10° S
Cosmos 2227 Rocket 3.3 19:52:35 10° WSW 19:57:55 40° NW 20:00:11 28° N
H-2A R/B 2.7 20:01:48 49° NNW 20:01:48 49° NNW 20:05:36 10° NNW
ARGOS 3.6 20:02:34 54° NNW 20:02:34 54° NNW 20:06:44 10° NNW
Cosmos 1943 3.6 20:06:02 10° NNW 20:10:30 57° NW 20:10:30 57° NW
ADEOS Rocket 3.9 20:19:51 10° N 20:26:06 54° WNW 20:33:02 10° SW
CZ-2C R/B 4.5 20:39:08 36° NW 20:39:08 36° NW 20:42:49 10° NNW
USA 267 4.1 21:02:15 43° NW 21:02:15 43° NW 21:06:44 10° WNW
ATLAS 5 CENTAUR R/B 4.5 20:57:27 10° NW 20:58:31 15° NNW 20:58:31 15° NNW
